Overview Statistics Trail Chart Weather Telemetry Raw packets
 

This is the latest recevied weather packets stored in our database for station/object KB8TTR. If no packets are shown the sender has not sent any weather packets the latest 10 day(s).

<< 100 101 102 103 104 105 106 >>
Time Temp. Humidity Pressure Rain* Wind** Luminosity Snow
1787864292 27.78° C 55% 1015.6 hPa 0 mm - 104 W/m² -
1787863987 27.78° C 56% 1015.6 hPa 0 mm - 106 W/m² -
1787863686 28.33° C 52% 1015.5 hPa 0 mm - 191 W/m² -
1787863385 28.33° C 53% 1015.6 hPa 0 mm - 141 W/m² -
1787863081 28.33° C 52% 1015.6 hPa 0 mm - 408 W/m² -
1787862776 28.33° C 54% 1015.7 hPa 0 mm - 156 W/m² -
1787862475 28.89° C 53% 1015.5 hPa 0 mm - 111 W/m² -
1787862170 28.89° C 51% 1015.5 hPa 0 mm - 614 W/m² -
1787861866 28.89° C 49% 1015.5 hPa 0 mm - 497 W/m² -
1787861565 28.89° C 51% 1015.6 hPa 0 mm - 652 W/m² -
1787861259 28.89° C 51% 1015.6 hPa 0 mm - 709 W/m² -
1787860959 28.89° C 52% 1015.8 hPa 0 mm - 694 W/m² -
1787860653 28.33° C 52% 1015.9 hPa 0 mm - 690 W/m² -
1787860348 28.33° C 52% 1015.6 hPa 0 mm - 713 W/m² -
1787860043 27.78° C 60% 1015.7 hPa 0 mm - 730 W/m² -
1787859739 27.78° C 58% 1015.9 hPa 0 mm - 740 W/m² -
1787859439 27.78° C 57% 1015.8 hPa 0 mm - 753 W/m² -
1787859138 27.78° C 53% 1015.7 hPa 0 mm - 817 W/m² -
1787858835 28.33° C 57% 1015.8 hPa 0 mm - 160 W/m² -
1787858531 27.78° C 58% 1016 hPa 0 mm - 821 W/m² -
1787858229 27.78° C 55% 1015.9 hPa 0 mm - 212 W/m² -
1787857926 28.33° C 57% 1015.9 hPa 0 mm - 214 W/m² -
1787857622 28.89° C 55% 1015.9 hPa 0 mm - 217 W/m² -
1787857322 28.33° C 55% 1016 hPa 0 mm - 866 W/m² -
1787857020 28.33° C 55% 1015.9 hPa 0 mm - 834 W/m² -

* Rain latest hour (hover to see other rain measurements)
** Current wind speed in m/s (hover to see current wind gust speed)